This is the latest recevied weather packets stored in our database for station/object KK7PZE-13. If no packets are shown the sender has not sent any weather packets the latest 10 day(s).
| Time | Temp. | Humidity | Pressure | Rain* | Wind** | Luminosity | Snow |
|---|---|---|---|---|---|---|---|
| 1777460759 | 12.78° C | 29% | 1014.3 hPa | 0 mm | - | - | - |
| 1777460160 | 13.89° C | 27% | 1014.4 hPa | 0 mm | - | - | - |
| 1777459559 | 14.44° C | 26% | 1014.3 hPa | 0 mm | - | - | - |
| 1777458960 | 14.44° C | 25% | 1014.2 hPa | 0 mm | - | - | - |
| 1777458359 | 15° C | 24% | 1014.2 hPa | 0 mm | - | - | - |
| 1777457759 | 15.56° C | 23% | 1014.2 hPa | 0 mm | - | - | - |
| 1777456559 | 16.67° C | 21% | 1014.2 hPa | 0 mm | - | - | - |
| 1777455959 | 16.11° C | 22% | 1014 hPa | 0 mm | - | - | - |
| 1777454759 | 15° C | 23% | 1014.3 hPa | 0 mm | - | - | - |
| 1777454159 | 15° C | 23% | 1014.4 hPa | 0 mm | - | - | - |
| 1777452959 | 16.11° C | 22% | 1014.3 hPa | 0 mm | - | - | - |
| 1777452366 | 16.11° C | 22% | 1014.3 hPa | 0 mm | - | - | - |
| 1777451759 | 16.11° C | 22% | 1014.1 hPa | 0 mm | - | - | - |
| 1777451195 | 16.67° C | 21% | 1014.3 hPa | 0 mm | - | - | - |
| 1777451160 | 16.67° C | 21% | 1014.3 hPa | 0 mm | - | - | - |
| 1777450608 | 16.11° C | 21% | 1014.2 hPa | 0 mm | - | - | - |
| 1777450560 | 16.11° C | 21% | 1014.2 hPa | 0 mm | - | - | - |
| 1777449960 | 16.67° C | 21% | 1014.4 hPa | 0 mm | - | - | - |
| 1777449359 | 16.67° C | 21% | 1014.5 hPa | 0 mm | - | - | - |
| 1777448760 | 17.22° C | 20% | 1014.5 hPa | 0 mm | - | - | - |
| 1777446960 | 16.67° C | 20% | 1015 hPa | 0 mm | - | - | - |
| 1777445160 | 16.11° C | 21% | 1015 hPa | 0 mm | - | - | - |
| 1777443996 | 17.22° C | 20% | 1014.5 hPa | 0 mm | - | - | - |
| 1777443959 | 17.22° C | 20% | 1014.5 hPa | 0 mm | - | - | - |
| 1777443360 | 17.22° C | 20% | 1014.6 hPa | 0 mm | - | - | - |
* Rain latest hour (hover to see other rain measurements)
** Current wind speed in m/s (hover to see current wind gust speed)